Location: ??
(35.5653°N, 139.6194°E)
Time: 23:17:08
(UTC+00:00)

Meteor 2-20 Rocket - Pass Details

Date: 20 November 2019
Orbit: 941 x 959 km, 82.5° (Epoch: 15 December)

Event Time Altitude Azimuth Distance (km) Brightness Sun altitude
Rises 19:27:19 0° 349° (N) 3,646 7.3 -23.2°
Reaches altitude 10° 19:29:50 10° 347° (NNW) 2,696 6.6 -22.7°
Maximum altitude 19:35:56 66° 267° (W) 1,042 4.3 -21.5°
Drops below altitude 10° 19:41:59 10° 186° (S) 2,673 6.8 -20.3°
Sets 19:44:28 0° 184° (S) 3,613 7.6 -19.8°
